Back to catalog

SL-8 DEB

AliveVLEO
NORAD 16867·DEBRIS·🇷🇺 Russia

Launched Jul 16, 1986 from Plesetsk Cosmodrome

Loading…

Next Passes (next 24 hours)

TLE

FreshSource: Space-Track

Epoch: Sep 14, 2026, 08:17 UTC

1 16867U 86052E   26257.34579656  .00012538  00000-0  64075-3 0  9990
2 16867  73.9959  31.4098 0008479 193.8540 166.2424 15.16685556142465

Track SL-8 DEB in real time with AllMySat

Download on the App Store